Location: Caltech
(34.1382°N, 118.1253°W)
Time: 00:39:28
(UTC-07:00)

KITSAT 1 - Visible Passes

Search period start: 17 August 2017 00:00
Search period end: 27 August 2017 00:00
Orbit: 1306 x 1324 km, 66.1° (Epoch: 16 August)

Date Brightness Start Highest point End Pass type
(mag) Time Alt. Az. Time Alt. Az. Time Alt. Az.
17 Aug 12.5 00:48:15 10° N 00:52:33 15° NE 00:56:51 10° ENE visible
17 Aug 10.4 02:41:27 10° NNW 02:49:34 68° ENE 02:51:29 53° ESE visible
17 Aug 11.3 04:38:20 10° WNW 04:43:16 22° W 04:43:16 22° W visible
18 Aug 12.1 01:03:22 10° N 01:09:19 22° NE 01:13:13 16° E visible
18 Aug 10.1 02:57:28 10° NNW 03:05:03 78° NW 03:05:03 78° NW visible
18 Aug 11.9 04:56:33 10° WNW 04:56:53 11° WNW 04:56:53 11° WNW visible
19 Aug 11.5 01:18:50 10° N 01:25:52 31° NE 01:27:17 29° ENE visible
19 Aug 10.8 03:13:42 10° NW 03:19:09 42° WNW 03:19:09 42° WNW visible
20 Aug 11.0 01:34:32 10° NNW 01:41:42 44° NE 01:41:42 44° NE visible
20 Aug 11.5 03:30:12 10° NW 03:33:35 24° WNW 03:33:35 24° WNW visible
20 Aug 12.3 23:57:17 10° N 00:01:26 14° NE 00:04:25 12° ENE visible
21 Aug 10.9 01:50:23 10° NNW 01:56:19 49° N 01:56:19 49° N visible
21 Aug 12.0 03:47:10 10° NW 03:48:13 13° WNW 03:48:13 13° WNW visible
22 Aug 11.9 00:12:21 10° N 00:18:12 21° NE 00:19:11 20° NE visible
22 Aug 11.1 02:06:24 10° NNW 02:11:05 39° NNW 02:11:05 39° NNW visible
23 Aug 11.6 00:27:48 10° N 00:34:04 30° NE 00:34:04 30° NE visible
23 Aug 11.5 02:22:37 10° NW 02:25:58 27° NW 02:25:58 27° NW visible
24 Aug 11.3 00:43:29 10° NNW 00:49:02 37° NNE 00:49:02 37° NNE visible
24 Aug 12.0 02:39:05 10° NW 02:40:57 18° NW 02:40:57 18° NW visible
24 Aug 12.2 23:06:19 10° N 23:10:18 14° NE 23:12:09 13° NE visible
25 Aug 11.3 00:59:19 10° NNW 01:04:05 38° N 01:04:05 38° N visible
25 Aug 12.3 02:56:00 10° NW 02:56:01 10° NW 02:56:01 10° NW visible
25 Aug 11.9 23:21:21 10° N 23:27:05 20° NE 23:27:16 20° NE visible
26 Aug 11.5 01:15:20 10° NNW 01:19:12 32° NNW 01:19:12 32° NNW visible
26 Aug 11.6 23:36:47 10° N 23:42:26 28° NE 23:42:26 28° NE visible
